Weather in Sokolov

Czech Republic     50°10′25″N   12°39′09″E
temp.,
°C
wind,
m/s
gust,
m/s
humid.,
%
clouds,
%
prec.,
mm/h
press.,
hPa
HPBL,
m
22 june, tue
tue2223:00+17n238394 0.0 100964
02:00+16nnw2489100 0.7 1010154
05:00+15n2798100 15.1 1011385
08:00+15n249590 16.3 1011281
11:00+15n229092 0.1 1013405
14:00+20nne216859 0.1 1013841
17:00+21nne326272 0.1 10131016
20:00+17nne347669 0.1 1014416
23 june, wed
wed2323:00+13ne119256 0.0 101636
02:00+13ne119056 0.0 101728
05:00+12wnw019477 0.0 101715
08:00+16ene127568 0.0 1018463
11:00+19sw1166100 0.1 1018946
14:00+20ene236888 1.1 1017887
17:00+16n239486 2.3 101980
20:00+16n249579 2.7 1018268
24 june, thu
thu2423:00+14n249987 0.0 1019142
02:00+14nne2495100 0.1 1018131
05:00+12nne2296100 1.1 101966
08:00+14nne1293100 4.0 1018181
11:00+19ene247791 0.4 1018890
14:00+21ene346991 1.4 10171194
17:00+21ene3569100 0.3 1015924
20:00+16se1298100 10.1 101677
25 june, fri
fri2523:00+14w2398100 1.8 1015104
02:00+13sw1498100 3.0 1016179
05:00+13w1299100 0.5 1015155
08:00+15nw139499 0.6 1015326
11:00+14nw1497100 1.6 1016365
14:00+16w1285100 3.7 1017481
17:00+15sw3493100 1.8 1018364
20:00+15w3692100 2.5 1018404
26 june, sat
sat2623:00+12w1399100 0.4 102085
02:00+13wsw2399100 0.4 1020142
05:00+12w1398100 0.0 1020124
08:00+14wsw1293100 0.1 1020282
11:00+17wsw237321 0.1 1019875
14:00+20wnw336164 0.4 10181267
17:00+21n115191 0.2 10171701
20:00+18e227399 0.2 101745